Location: Newark
(43.5831°N, 21.3381°E)
Time: 20:12:27
(UTC+00:00)

FALCONSAT 3 - Pass Details

Date: 21 February 2020
Orbit: 452 x 455 km, 35.4° (Epoch: 28 March)

Event Time Altitude Azimuth Distance (km) Brightness Sun altitude
Rises 16:35:39 0° 256° (WSW) 2,458 ? -5.0°
Reaches altitude 10° 16:38:28 10° 234° (SW) 1,582 ? -5.5°
Maximum altitude 16:40:40 15° 196° (SSW) 1,283 ? -5.9°
Drops below altitude 10° 16:42:52 10° 158° (SSE) 1,578 ? -6.3°
Sets 16:45:40 0° 135° (SE) 2,447 ? -6.8°
